Location: Unspecified
(0.0000°N, 0.0000°E)
Time: 06:50:07
(UTC+00:00)

Envisat - Pass Details

Date: 20 September 2021
Orbit: 764 x 766 km, 98.2° (Epoch: 17 September)

Event Time Altitude Azimuth Distance (km) Brightness Sun altitude
Rises 03:56:31 0° 38° (NE) 3,216 6.7 -29.2°
Reaches altitude 10° 03:59:18 10° 53° (NE) 2,293 6.1 -28.5°
Maximum altitude 04:03:07 22° 102° (ESE) 1,635 5.4 -27.6°
Drops below altitude 10° 04:06:56 10° 152° (SSE) 2,301 5.8 -26.6°
Sets 04:09:43 0° 167° (SSE) 3,230 6.4 -25.9°
